This demonstration page uses our WeatherBlox Daily Observations layout. Learn more.

Hourly Observations for March 3, 2020

Temp ( °F °C ) Dew Point ( °F °C ) Humidity (%) Winds ( mph kmh ) Pressure ( in mb ) Visibility ( mi km ) Precip ( " mm )
12:15 am 00:15 Mostly Cloudy 46 8 46 8 100 100 SSW 5 7 29.85 1011 10 16.0934 0 0
12:35 am 00:35 Partly Cloudy 46 8 45 7 93 93 S 3 6 29.85 1011 10 16.0934 0 0
12:55 am 00:55 Partly Cloudy 46 8 45 7 93 93 SSW 5 7 29.85 1011 10 16.0934 0 0
1:15 am 01:15 Mostly Cloudy 43 6 43 6 100 100 S 3 6 29.84 1011 2 3.21868 0 0
1:35 am 01:35 Partly Cloudy 43 6 43 6 100 100 Calm 29.85 1011 10 16.0934 0 0
1:55 am 01:55 Cloudy 43 6 43 6 100 100 Calm 29.85 1011 7 11.26538 0 0
2:15 am 02:15 Cloudy 43 6 43 6 100 100 SSW 5 7 29.84 1011 10 16.0934 0 0
2:35 am 02:35 Partly Cloudy 41 5 41 5 100 100 SSW 6 9 29.84 1011 10 16.0934 0 0
2:55 am 02:55 Clear 39 4 39 4 100 100 WSW 5 7 29.85 1011 5 8.0467 0 0
3:15 am 03:15 Mostly Cloudy 41 5 41 5 100 100 SSW 3 6 29.83 1010 10 16.0934 0 0
3:35 am 03:35 Cloudy 41 5 41 5 100 100 SSW 6 9 29.82 1010 10 16.0934 0 0
3:55 am 03:55 Partly Cloudy 41 5 41 5 100 100 W 3 6 29.82 1010 10 16.0934 0 0
4:15 am 04:15 Partly Cloudy 39 4 39 4 100 100 W 3 6 29.83 1010 10 16.0934 0 0
4:35 am 04:35 Partly Cloudy 41 5 41 5 100 100 Calm 29.8 1009 10 16.0934 0 0
4:55 am 04:55 Clear 39 4 39 4 100 100 SSE 6 9 29.82 1010 10 16.0934 0 0
5:15 am 05:15 Clear 43 6 41 5 93 93 SSE 6 9 29.8 1009 10 16.0934 0 0
5:35 am 05:35 Clear 43 6 41 5 93 93 S 6 9 29.79 1009 10 16.0934 0 0
5:55 am 05:55 Clear 41 5 39 4 93 93 SSW 6 9 29.79 1009 10 16.0934 0 0
6:15 am 06:15 Clear 39 4 39 4 100 100 SSW 6 9 29.79 1009 10 16.0934 0 0
6:35 am 06:35 Clear 37 3 37 3 100 100 SW 3 6 29.79 1009 10 16.0934 0 0
6:55 am 06:55 Sunny 39 4 39 4 100 100 SSW 6 9 29.81 1009 10 16.0934 0 0
7:15 am 07:15 Sunny 41 5 41 5 100 100 S 6 9 29.78 1009 10 16.0934 0 0
7:35 am 07:35 Sunny 41 5 41 5 100 100 S 5 7 29.78 1009 10 16.0934 0 0
7:55 am 07:55 Sunny 43 6 41 5 93 93 Calm 29.78 1009 10 16.0934 0 0
8:15 am 08:15 Partly Cloudy 45 7 41 5 87 87 S 3 6 29.77 1008 10 16.0934 0 0
8:35 am 08:35 Partly Cloudy 45 7 41 5 87 87 SSE 3 6 29.76 1008 10 16.0934 0 0
8:55 am 08:55 Partly Cloudy 45 7 43 6 93 93 SSE 6 9 29.76 1008 10 16.0934 0 0
9:15 am 09:15 Mostly Cloudy 45 7 43 6 93 93 SSW 5 7 29.76 1008 10 16.0934 0 0
9:35 am 09:35 Cloudy 45 7 43 6 93 93 SSW 3 6 29.75 1007 10 16.0934 0 0
9:55 am 09:55 Cloudy 45 7 43 6 93 93 S 5 7 29.74 1007 10 16.0934 0 0
10:15 am 10:15 Cloudy 46 8 43 6 87 87 SSW 5 7 29.73 1007 10 16.0934 0 0
10:35 am 10:35 Cloudy 46 8 43 6 87 87 SSE 7 11 29.69 1005 10 16.0934 0 0
10:55 am 10:55 Cloudy 46 8 45 7 93 93 S 7 11 29.7 1006 10 16.0934 0 0
11:15 am 11:15 Cloudy 46 8 45 7 93 93 S 9 15 29.68 1005 7 11.26538 0.01 0.254
11:35 am 11:35 Cloudy 46 8 45 7 93 93 S 9 15 29.66 1004 7 11.26538 0.01 0.254
11:55 am 11:55 Cloudy 46 8 46 8 100 100 S 12 19 29.64 1004 4 6.43736 0.01 0.254
12:15 pm 12:15 Cloudy 46 8 46 8 100 100 SSW 8 13 29.66 1004 10 16.0934 0 0
12:35 pm 12:35 Cloudy 46 8 46 8 100 100 SW 9 15 29.65 1004 10 16.0934 0 0
12:55 pm 12:55 Cloudy 46 8 46 8 100 100 SSW 9 15 29.63 1003 5 8.0467 0.01 0.254
1:15 pm 13:15 Cloudy 48 9 48 9 100 100 SW 13 20 29.63 1003 7 11.26538 0 0
1:35 pm 13:35 Cloudy 50 10 50 10 100 100 SW 9 15 29.62 1003 10 16.0934 0 0
1:55 pm 13:55 Cloudy 50 10 50 10 100 100 SSW 9 15 29.6 1002 10 16.0934 0 0
2:15 pm 14:15 Cloudy 54 12 52 11 94 94 SSW 9 15 29.57 1001 10 16.0934 0 0
2:35 pm 14:35 Partly Cloudy 55 13 52 11 88 88 SSW 9 15 29.57 1001 10 16.0934 0 0
2:55 pm 14:55 Partly Cloudy 57 14 52 11 82 82 SSW 8 13 29.57 1001 10 16.0934 0 0
3:15 pm 15:15 Sunny 59 15 52 11 77 77 S 9 15 29.56 1001 10 16.0934 0 0
3:35 pm 15:35 Sunny 59 15 52 11 77 77 SSW 10 17 29.54 1000 10 16.0934 0 0
3:55 pm 15:55 Sunny 59 15 50 10 72 72 S 14 22 29.53 1000 10 16.0934 0 0
4:15 pm 16:15 Sunny 59 15 52 11 77 77 SSW 9 15 29.52 1000 10 16.0934 0 0
4:35 pm 16:35 Sunny 61 16 52 11 72 72 S 8 13 29.51 999 10 16.0934 0 0
4:55 pm 16:55 Sunny with Nearby Thunderstorms 61 16 52 11 72 72 S 9 15 29.51 999 10 16.0934 0 0
5:15 pm 17:15 Sunny 61 16 52 11 72 72 SSW 7 11 29.5 999 10 16.0934 0 0
5:35 pm 17:35 Sunny 59 15 50 10 72 72 S 7 11 29.5 999 10 16.0934 0 0
5:55 pm 17:55 Sunny 59 15 50 10 72 72 SSW 5 7 29.49 999 10 16.0934 0 0
6:15 pm 18:15 Partly Cloudy 57 14 50 10 77 77 SSW 7 11 29.5 999 10 16.0934 0 0
6:35 pm 18:35 Cloudy 57 14 52 11 82 82 SW 9 15 29.52 1000 10 16.0934 0 0
6:55 pm 18:55 Cloudy 55 13 54 12 94 94 W 10 17 29.54 1000 7 11.26538 0.04 1.016
7:15 pm 19:15 Partly Cloudy 54 12 52 11 94 94 W 6 9 29.54 1000 10 16.0934 0 0
7:35 pm 19:35 Clear 54 12 52 11 94 94 SSW 5 7 29.55 1001 10 16.0934 0 0
7:55 pm 19:55 Clear 54 12 50 10 88 88 SW 5 7 29.55 1001 10 16.0934 0 0
8:15 pm 20:15 Partly Cloudy 55 13 46 8 72 72 WNW 22 35 29.57 1001 10 16.0934 0 0
8:35 pm 20:35 Mostly Cloudy 54 12 48 9 82 82 WNW 23 37 29.61 1003 10 16.0934 0 0
8:55 pm 20:55 Cloudy 54 12 43 6 67 67 NW 32 52 29.63 1003 10 16.0934 0 0
9:15 pm 21:15 Mostly Cloudy 54 12 37 3 54 54 NW 32 52 29.64 1004 10 16.0934 0 0
9:35 pm 21:35 Partly Cloudy 52 11 37 3 58 58 WNW 24 39 29.66 1005 10 16.0934 0 0
9:55 pm 21:55 Clear 52 11 37 3 58 58 NW 22 35 29.67 1005 10 16.0934 0 0
10:15 pm 22:15 Clear 52 11 37 3 58 58 NW 28 44 29.66 1005 10 16.0934 0 0
10:35 pm 22:35 Clear 52 11 37 3 58 58 NW 16 26 29.68 1005 10 16.0934 0 0
10:55 pm 22:55 Clear 52 11 36 2 54 54 WNW 15 24 29.69 1006 10 16.0934 0 0
11:15 pm 23:15 Mostly Cloudy 54 12 36 2 51 51 WNW 20 31 29.7 1006 10 16.0934 0 0
11:35 pm 23:35 Cloudy 50 10 37 3 62 62 WNW 28 44 29.76 1008 10 16.0934 0 0
11:55 pm 23:55 Cloudy 48 9 37 3 66 66 WNW 20 31 29.76 1008 10 16.0934 0 0

Powered by AerisWeather